STARLINK-35106

Last updated on Mon Oct 20 2025 00:02:06 GMT+0000 (Coordinated Universal Time)

1 65739U 25216F 25292.23798435 .00121571 00000+0 21574-2 0 9994 2 65739 53.1587 272.2651 0001242 87.8492 272.2659 15.49344471 4822
UTC large
Height (km)
Speed (km/s)
/
Latitude / Longitude
Inclination (degrees)
Orbital Period (minutes)
Azimuth
Elevation
Range (km)
Doppler Factor

Next 0 passes for location: London (51.5072 / 0.1276)

Sorry there are no passes over London.